JL1LCW-13 Weather Reports


time (UTC)temp
C
wind
direction
speed
KPH
gust
KPH
rain 1hr
cm
rain 24hr
cm
rain mn
cm
humidity
%
barometer
mb
20260510005157 22 45 6.4 9.7 0.00 0.00 0.00 47 1023.0
20260510003658 21 67 9.7 9.7 0.00 0.00 0.00 51 1023.0
20260509235159 18 45 6.4 9.7 0.00 0.00 0.00 51 1023.0
20260509233658 18 45 3.2 9.7 0.00 0.00 0.00 55 1023.0
20260509225159 17 90 3.2 6.4 0.00 0.00 0.00 73 1023.0
20260509223658 17 360 0.0 6.4 0.00 0.00 0.00 79 1023.0
20260509215157 12 22 0.0 0.0 0.00 0.00 0.00 99 1023.0
20260509213659 12 202 0.0 0.0 0.00 0.00 0.00 99 1023.0
20260509205157 8 90 0.0 0.0 0.00 0.00 0.00 99 1022.0
20260509203659 7 67 0.0 0.0 0.00 0.00 0.00 99 1022.0
20260509195159 7 90 0.0 0.0 0.00 0.00 0.00 99 1021.0
20260509193658 7 202 0.0 0.0 0.00 0.00 0.00 99 1021.0
20260509185157 7 180 0.0 0.0 0.00 0.00 0.00 99 1020.0
20260509183657 7 45 0.0 0.0 0.00 0.00 0.00 99 1020.0
20260509175158 7 292 0.0 0.0 0.00 0.00 0.00 99 1020.0
20260509173658 7 67 0.0 0.0 0.00 0.00 0.00 99 1020.0
20260509165159 7 45 0.0 3.2 0.00 0.00 0.00 99 1019.0
20260509163658 8 90 0.0 3.2 0.00 0.00 0.00 99 1019.0
20260509155159 8 45 0.0 3.2 0.00 0.00 0.00 99 1019.0
20260509153658 8 45 0.0 0.0 0.00 0.00 0.00 99 1019.0
20260509145157 10 270 0.0 0.0 0.00 0.00 0.00 99 1019.0
20260509143659 10 45 0.0 0.0 0.00 0.00 0.00 99 1018.0
20260509135158 10 225 0.0 0.0 0.00 0.00 0.00 95 1018.0
20260509133657 10 157 0.0 0.0 0.00 0.00 0.00 91 1018.0
20260509125157 11 112 0.0 0.0 0.00 0.00 0.00 87 1017.0
20260509123657 11 90 0.0 0.0 0.00 0.00 0.00 85 1017.0
20260509115158 12 202 0.0 1.6 0.00 0.00 0.00 79 1017.0
20260509113658 12 67 0.0 1.6 0.00 0.00 0.00 77 1017.0
20260509105159 15 67 0.0 0.0 0.00 0.00 0.00 68 1016.0
20260509103658 15 112 0.0 3.2 0.00 0.00 0.00 66 1016.0
20260509095157 17 157 0.0 9.7 0.00 0.00 0.00 55 1015.0
20260509093657 18 67 1.6 9.7 0.00 0.00 0.00 49 1015.0
20260509085158 21 45 0.0 9.7 0.00 0.00 0.00 41 1014.0
20260509083658 21 45 0.0 14.5 0.00 0.00 0.00 43 1014.0
20260509075158 22 225 6.4 16.1 0.00 0.00 0.00 32 1013.0
20260509073658 22 112 3.2 16.1 0.00 0.00 0.00 32 1012.0
20260509065157 23 112 9.7 19.3 0.00 0.00 0.00 32 1012.0
20260509063658 23 45 9.7 19.3 0.00 0.00 0.00 32 1012.0
20260509055158 25 45 8.0 16.1 0.00 0.00 0.00 38 1012.0
20260509053658 25 360 3.2 16.1 0.00 0.00 0.00 37 1012.0
20260509045159 23 270 9.7 16.1 0.00 0.00 0.00 37 1012.0
20260509043659 23 292 9.7 16.1 0.00 0.00 0.00 38 1012.0
20260509035158 25 360 6.4 22.5 0.00 0.00 0.00 42 1012.0
20260509033657 25 180 9.7 22.5 0.00 0.00 0.00 41 1012.0
20260509025158 23 45 9.7 22.5 0.00 0.00 0.00 42 1011.0
20260509023658 22 270 12.9 22.5 0.00 0.00 0.00 41 1011.0
20260509015158 22 292 9.7 20.9 0.00 0.00 0.00 43 1011.0
20260509013658 22 225 16.1 19.3 0.00 0.00 0.00 43 1011.0